Flag for Central African Republic Weather past 2 weeks in Bimbo, Central African Republic

Now
91 °F

Scattered clouds.


Feels Like: 100 °F
Forecast: 74 / 94 °F
Wind: 7 mph from Southeast

Location: Bangui Airport

Current Time: Apr 28, 2015 at 1:24:44 PM

Latest Report: Apr 28, 2015 at 12:00 PM


Visibility: N/A

Pressure: 29.86 "Hg

Humidity: 56%

Dew point: 73 °F

Location of BimboLocation

Historic Weather in Bimbo — Graph

°F

Bimbo temperature yesterday

Maximum temperature yesterday: 95 °F (at 3:00 PM)
Minimum temperature yesterday: 72 °F (at 5:00 AM)
Average temperature yesterday: 86 °F

Past Weeks' High & Low Weather Summary

 TemperatureHumidityPressure
High97 °F (Apr 16, 3:00 PM)100% (Apr 13, 1:00 PM)29.98 "Hg (Apr 13, 1:00 PM)
Low70 °F (Apr 26, 6:00 AM)41% (Apr 22, 3:00 PM)29.74 "Hg (Apr 14, 3:00 PM)
Average82 °F78%29.86 "Hg
* Reported Apr 13 12:00 Noon — Apr 28 12:00 Noon, Bimbo, Weather by CustomWeather, © 2015

Note: Actual official high and low records may vary slightly from our data, if they occured in-between our weather recording intervals... More about our weather records

Advertising

Bimbo weather history for previous 24 hours

 ConditionsComfort  
Time TempWeatherWind HumidityBarometerVisibility
12:00 PM
Tue, Apr 28
91 °FScattered clouds.7 mph56%29.86 "HgN/A
11:00 AM91 °FPartly sunny.7 mph56%29.89 "HgN/A
10:00 AM90 °FScattered clouds.8 mph59%29.92 "HgN/A
9:00 AM86 °FPartly sunny.8 mph66%29.92 "HgN/A
8:00 AM82 °FPartly sunny.6 mph74%29.92 "Hg4 mi
7:00 AM77 °FPartly sunny.2 mph89%29.92 "HgN/A
6:00 AM75 °FPartly sunny.No wind94%29.89 "Hg4 mi
5:00 AM75 °FPassing clouds.No wind94%29.86 "Hg4 mi
4:00 AM77 °FPassing clouds.No wind89%29.86 "Hg4 mi
3:00 AM77 °FPassing clouds.2 mph89%29.83 "Hg4 mi
2:00 AM77 °FPassing clouds.No wind89%29.83 "Hg4 mi
1:00 AM77 °FPassing clouds.No wind94%29.83 "Hg4 mi
12:00 AM79 °FPassing clouds.No wind89%29.86 "Hg4 mi
11:00 PM
Mon, Apr 27
81 °FPassing clouds.1 mph79%29.86 "Hg4 mi
10:00 PM81 °FPassing clouds.3 mph79%29.86 "Hg4 mi
9:00 PM82 °FPassing clouds.No wind74%29.86 "Hg4 mi
8:00 PM82 °FPassing clouds.5 mph74%29.83 "Hg5 mi
7:00 PM84 °FPassing clouds.3 mph70%29.83 "Hg5 mi
6:00 PM86 °FPassing clouds.5 mph62%29.80 "Hg5 mi
5:00 PM91 °FPartly sunny.5 mph52%29.77 "HgN/A
4:00 PM93 °FScattered clouds.7 mph49%29.77 "HgN/A
3:00 PM95 °FScattered clouds.6 mph47%29.77 "HgN/A
2:00 PM93 °FScattered clouds.5 mph47%29.80 "HgN/A
Weather by CustomWeather, © 2015

See weather overviewHow to use our weather pages